Weather History for Redwood Falls, MN

Change the Weather History Date:

Wednesday, May 29, 2013

  Actual Average Record
Temperature  
Mean Temperature 65 °F -  
Max Temperature 80 °F 74 °F 100 °F (1934)
Min Temperature 51 °F 54 °F 30 °F (1947)
Growing Degree Days 15 (Base 50)    
Moisture  
Dew Point 60 °F    
Average Humidity 89    
Maximum Humidity 100    
Minimum Humidity 66    
Precipitation  
Precipitation 0.07 in - - ()
Sea Level Pressure  
Sea Level Pressure 29.69 in    
Wind  
Wind Speed 10 mph (SE)    
Max Wind Speed 24 mph    
Max Gust Speed 28 mph    
Visibility 6 miles    
Events Fog , Rain    
Averages and records for this station are not official NWS values.
T = Trace of Precipitation, MM = Missing Value Source: NWS Daily Summary

Daily Weather History Graph

Daily Weather History Graph

Search for Another Location

Airport:

Trip Planner

Search our weather history database for the weather conditions in past years. The results will help you decide how hot, cold, wet, or windy it might be!

Date:

Astronomy

May. 29, 2013 Rise Set
Actual Time 5:40 AM CDT 8:55 PM CDT
Civil Twilight 5:04 AM CDT 9:31 PM CDT
Nautical Twilight 4:18 AM CDT 10:17 PM CDT
Astronomical Twilight 3:21 AM CDT 11:15 PM CDT
Moon 12:13 AM CDT (5/29) 10:47 AM CDT (5/29)
Length of Visible Light 16h 27m
Length of Day
15h 15m
Waning Gibbous, 73% of the Moon is Illuminated
May 29
Waning Gibbous
May 31
Last Quarter
Jun 8
New
Jun 16
First Quarter
Jun 23
Full

Hourly Weather History & Observations

Time (CDT) Temp. Dew Point Humidity Pressure Visibility Wind Dir Wind Speed Gust Speed Precip Events Conditions
12:53 AM 53.1 °F 53.1 °F 100% 29.78 in 5.0 mi SSE 6.9 mph - N/A   Clear
1:53 AM 53.1 °F 52.0 °F 96% 29.76 in 4.0 mi SE 8.1 mph - N/A   Clear
2:53 AM 53.1 °F 52.0 °F 96% 29.75 in 2.5 mi ENE 3.5 mph - N/A   Clear
3:04 AM 51.8 °F 51.8 °F 100% 29.78 in 1.5 mi South 5.8 mph - N/A   Clear
3:15 AM 51.8 °F 51.8 °F 100% 29.78 in 2.5 mi South 6.9 mph - N/A   Clear
3:38 AM 51.8 °F 51.8 °F 100% 29.76 in 1.8 mi ESE 4.6 mph - N/A   Scattered Clouds
3:48 AM 51.8 °F 51.8 °F 100% 29.74 in 1.2 mi ENE 4.6 mph - N/A   Mostly Cloudy
3:53 AM 52.0 °F 52.0 °F 100% 29.75 in 0.5 mi East 4.6 mph - N/A Fog Fog
4:53 AM 52.0 °F 52.0 °F 100% 29.74 in 0.2 mi East 5.8 mph - 0.01 in Fog Fog
5:53 AM 52.0 °F 52.0 °F 100% 29.76 in 0.2 mi SSE 6.9 mph - N/A Fog Fog
6:53 AM 53.1 °F 53.1 °F 100% 29.75 in 0.2 mi SE 8.1 mph - N/A Fog Fog
7:53 AM 55.0 °F 55.0 °F 100% 29.75 in 0.2 mi ENE 5.8 mph - N/A Fog Fog
8:12 AM 55.4 °F 55.4 °F 100% 29.76 in 1.8 mi SE 9.2 mph - N/A   Overcast
8:21 AM 57.2 °F 57.2 °F 100% 29.75 in 2.5 mi ESE 6.9 mph - 0.00 in Rain Light Rain
8:28 AM 57.2 °F 57.2 °F 100% 29.75 in 3.0 mi ESE 3.5 mph - 0.00 in   Overcast
8:53 AM 57.9 °F 57.0 °F 97% 29.74 in 3.0 mi ESE 8.1 mph - 0.00 in Rain Light Rain
9:09 AM 57.2 °F 57.2 °F 100% 29.72 in 3.0 mi SE 9.2 mph - 0.00 in   Overcast
9:53 AM 62.1 °F 61.0 °F 96% 29.70 in 5.0 mi East 11.5 mph 18.4 mph 0.00 in   Overcast
10:25 AM 64.4 °F 60.8 °F 88% 29.70 in 7.0 mi SE 17.3 mph 23.0 mph N/A   Overcast
10:43 AM 64.4 °F 62.6 °F 94% 29.70 in 7.0 mi SE 12.7 mph 20.7 mph N/A   Overcast
10:53 AM 64.0 °F 62.1 °F 93% 29.70 in 7.0 mi ESE 10.4 mph - N/A   Overcast
11:20 AM 66.2 °F 62.6 °F 88% 29.71 in 8.0 mi SE 12.7 mph - N/A   Overcast
11:53 AM 69.1 °F 64.0 °F 84% 29.69 in 8.0 mi SE 16.1 mph 19.6 mph N/A   Overcast
12:51 PM 71.6 °F 64.4 °F 78% 29.69 in 10.0 mi SE 18.4 mph - N/A   Overcast
12:53 PM 72.0 °F 66.0 °F 81% 29.69 in 10.0 mi SE 18.4 mph - N/A   Overcast
1:53 PM 77.0 °F 66.9 °F 71% 29.65 in 10.0 mi SE 23.0 mph 27.6 mph N/A   Mostly Cloudy
2:53 PM 77.0 °F 66.9 °F 71% 29.63 in 10.0 mi SSE 20.7 mph 26.5 mph N/A   Overcast
3:32 PM 78.8 °F 68.0 °F 69% 29.62 in 10.0 mi SSE 21.9 mph 26.5 mph N/A   Mostly Cloudy
3:53 PM 79.0 °F 66.9 °F 66% 29.61 in 10.0 mi SE 24.2 mph - N/A   Mostly Cloudy
4:53 PM 77.0 °F 66.0 °F 69% 29.59 in 10.0 mi SE 20.7 mph - N/A   Clear
5:53 PM 77.0 °F 66.0 °F 69% 29.57 in 10.0 mi SE 20.7 mph - N/A   Scattered Clouds
6:53 PM 75.9 °F 66.0 °F 71% 29.57 in 10.0 mi SE 17.3 mph 24.2 mph N/A   Mostly Cloudy
7:53 PM 75.0 °F 64.9 °F 71% 29.59 in 10.0 mi SE 18.4 mph - N/A   Scattered Clouds
8:53 PM 73.0 °F 63.0 °F 71% 29.59 in 10.0 mi SSE 19.6 mph - N/A   Partly Cloudy
9:53 PM 70.0 °F 64.9 °F 84% 29.60 in 10.0 mi SE 15.0 mph - N/A   Clear
10:53 PM 68.0 °F 64.0 °F 87% 29.60 in 8.0 mi SE 18.4 mph 25.3 mph 0.01 in Rain Light Rain
11:53 PM 66.0 °F 63.0 °F 90% 29.57 in 10.0 mi SE 24.2 mph 27.6 mph 0.05 in Rain Light Rain